Regional Weather Roundup
Issued by NWS

Home | Current Version | Previous Version | Text Only | Print | Product List | Glossary Off
Versions: 1 2 3 4 5 6 7 8 9 10 11 12 13 14 15 16 17 18 19 20 21 22 23 24 25 26 27 28 29 30 31 32 33 34 35 36 37 38 39 40 41 42 43 44 45 46 47 48 49

000
ASUS43 KDMX 280907
RWRIA

WEATHER ROUNDUP FOR IOWA
NATIONAL WEATHER SERVICE DES MOINES IA
400 AM CDT TUE JUL 28 2015

NOTE: "FAIR" INDICATES FEW OR NO CLOUDS BELOW 12,000 FEET WITH NO
SIGNIFICANT WEATHER AND/OR OBSTRUCTIONS TO VISIBILITY.

* - THESE STATIONS ARE NOT NWS STATIONS...THUS NOT UNDER NWS
QUALITY CONTROL.  THEY ALSO DO NOT REPORT WEATHER SUCH
AS PRECIPITATION OR FOG.

IAZ001>003-012>014-020>022-031>034-043>046-281000-
   NORTHWEST IOWA

CITY           SKY/WX    TMP DP  RH WIND       PRES   REMARKS
CARROLL *      CLEAR     72  70  94 S10       29.83F
CHEROKEE *     PTCLDY    72  72 100 S9        29.80F THUNDER
DENISON *      CLEAR     73  70  88 S15G24    29.79F
LE MARS *      RAIN      73  72  94 S25G39    29.72F
ORANGE CITY *  CLOUDY    72  70  94 SE12      29.75F
SHELDON *      MOCLDY    72  70  94 S18G29    29.74F
SIOUX CITY     MOCLDY    75  70  84 SE15      29.74F
SPENCER        PTCLDY    73  68  84 S16G24    29.80F
STORM LAKE *   CLEAR     72  70  94 S12       29.83S
$$

IAZ055>058-069>071-079>083-090>094-281000-
   SOUTHWEST IOWA

CITY           SKY/WX    TMP DP  RH WIND       PRES   REMARKS
ATLANTIC *     PTCLDY    73  70  88 S9G15     29.85S
AUDUBON *      CLEAR     73  68  83 S8        29.85F
CLARINDA *     CLEAR     73  72  94 S6        29.87S
COUNCIL BLFS * CLEAR     73  72  94 S13G21    29.81F
CRESTON *      CLEAR     72  68  88 SE9       29.88S
HARLAN  *      CLEAR     72  72 100 S10G17    29.86F
LAMONI         CLEAR     73  69  87 S8        29.89S
RED OAK *      CLEAR     73  72  94 S7        29.85S
SHENANDOAH *     N/A     75  73  94 SE8G14    29.84S
$$

IAZ047>049-059>061-072>074-084-281000-
   CENTRAL IOWA

CITY           SKY/WX    TMP DP  RH WIND       PRES   REMARKS
AMES           CLOUDY    70  69  97 SE5       29.87F FOG
ANKENY *       MOCLDY    72  72 100 SE5       29.87S
CHARITON *     MOCLDY    73  70  88 S9        29.89S
DES MOINES     PTCLDY    74  70  87 SE6       29.87S
GRINNELL*      MOCLDY    73  72  94 SE7       29.91F FOG
KNOXVILLE *    MOCLDY    72  70  94 SE5       29.88S FOG
MARSHALLTOWN     N/A     73  72  96 SE10      29.88F
PELLA *        CLOUDY    73  73 100 SE8       29.91R FOG
PERRY *          N/A     72  72 100 S7        29.86F
$$

IAZ004>006-015-016-023>025-035-036-281000-
   NORTH CENTRAL IOWA

CITY           SKY/WX    TMP DP  RH WIND       PRES   REMARKS
ALGONA *       MOCLDY    72  70  94 SE15      29.83F
CLARION *      CLOUDY    72  70  94 SE10      29.86F
ESTHERVILLE    MOCLDY    70  68  93 S13G23    29.81F
FORT DODGE *   MOCLDY    72  66  83 S8        29.86F
MASON CITY     CLOUDY    71  70  96 SE12      29.88F
FOREST CITY *  HVY RAIN  70  70 100 SW7       29.89R
IOWA FALLS *   CLOUDY    72  70  94 SE10      29.89F
$$

IAZ007>011-017>019-026>030-037>042-050>054-066-281000-
   NORTHEAST IOWA

CITY           SKY/WX    TMP DP  RH WIND       PRES   REMARKS
CEDAR RAPIDS   CLEAR     71  71 100 SE3       29.93S
CHARLES CITY * MOCLDY    72  72 100 SE10      29.90F
CLINTON *      CLEAR     70  64  83 SE9       29.98F
DECORAH *      PTCLDY    70  70 100 SE7       29.93S FOG
DUBUQUE        CLEAR     70  66  87 SE8       29.97S
MONTICELLO *   CLEAR     73  70  88 SE8       29.94S
OELWEIN *      CLEAR     72  72 100 SE8       29.93F FOG
WATERLOO       CLEAR     73  71  93 SE9       29.89F
$$

IAZ064-065-067-068-078-281000-
   EAST CENTRAL IOWA

CITY           SKY/WX    TMP DP  RH WIND       PRES   REMARKS
DAVENPORT      CLEAR     72  69  90 E7        29.95F
IOWA CITY      CLEAR     72  70  93 SE3       29.94S
MT. PLEASANT * PTCLDY    75  72  88 SE5       29.93S FOG
MUSCATINE *    MOCLDY    70  68  94 CALM      29.93S
QUAD CITIES    CLEAR     71  68  90 E7        29.94F
$$

IAZ062-063-075>077-085>089-095>099-281000-
   SOUTHEAST IOWA

CITY           SKY/WX    TMP DP  RH WIND       PRES   REMARKS
BURLINGTON     CLOUDY    75  74  96 SE6       29.92F
FAIRFIELD *    MOCLDY    73  72  94 SE8       29.92F FOG
FORT MADISON * CLEAR     73  73 100 SE5       29.94S FOG
KEOKUK *       MOCLDY    73  73 100 SE5       29.92F
OSKALOOSA *    CLOUDY    72  72 100 SE7       29.91S FOG
CENTERVILLE *  CLEAR     72  70  94 S7        29.92R
OTTUMWA        PTCLDY    72  72 100 SE8       29.90R FOG
WASHINGTON *   MOCLDY    73  73 100 SE6       29.94S FOG
$$

ABBREVIATIONS USED IN REMARKS
   TC - TEMPERATURES IN CELSIUS
  WCI - WIND CHILL INDEX
   HX - HEAT INDEX
  VSB - VISIBILITY
$$




USA.gov is the U.S. government's official web portal to all federal, state and local government web resources and services.